Location: Recife
(8.0585°S, 34.8848°W)
Time: 11:17:07
(UTC-03:00)

S-56A Canister/Altair - Pass Details

Date: 18 April 2026
Orbit: 633 x 2484 km, 38.9° (Epoch: 20 May)

Event Time Altitude Azimuth Distance (km) Brightness Sun altitude
Rises 22:01:58 0° 208° (SSW) 2,942 - -70.8°
Reaches altitude 10° 22:04:34 10° 192° (SSW) 2,098 - -71.5°
Maximum altitude 22:08:18 22° 139° (SE) 1,580 - -72.4°
Drops below altitude 10° 22:12:46 10° 88° (E) 2,564 - -73.4°
Sets 22:16:20 0° 74° (ENE) 3,797 - -74.3°
